Tracking 19170 objects as of 23-May-2018
HD Live streaming from Space Station
objects crossing your sky now

COSMOS 2198

Track COSMOS 2198 now!
10-day predictions
COSMOS 2198 is classified as:


NORAD ID: 22035
Int'l Code: 1992-042B
Perigee: 1,414.6 km
Apogee: 1,424.2 km
Inclination: 82.6 °
Period: 114.1 minutes
Semi major axis: 7790 km
RCS: 1.1839 m2 (large)
Launch date: July 13, 1992
Source: Commonwealth of Independent States (former USSR) (CIS)
Launch site: PLESETSK MISSILE AND SPACE COMPLEX (PKMTR)
aabbcc
Your satellite tracking list
Your tracking list is empty




NASA's NSSDC Master Catalog

Two Line Element Set (TLE):
1 22035U 92042B   18142.93887080 +.00000030 +00000-0 +10858-3 0  9996
2 22035 082.5955 331.3948 0006190 150.4003 209.7440 12.62596911191478
Source of the keplerian elements: AFSPC